TimeEST,TemperatureF,Dew PointF,Humidity,Sea Level PressureIn,VisibilityMPH,Wind Direction,Wind SpeedMPH,Gust SpeedMPH,PrecipitationIn,Events,Conditions,WindDirDegrees,DateUTC
12:58 AM,34.9,28.4,77,29.92,10.0,SW,3.5,-,N/A,,Clear,230,2013-03-02 05:58:00
1:58 AM,31.8,29.5,91,29.94,10.0,West,1.2,-,N/A,,Clear,260,2013-03-02 06:58:00
2:58 AM,31.1,28.0,88,29.93,10.0,West,2.3,-,N/A,,Overcast,270,2013-03-02 07:58:00
3:58 AM,32.2,29.1,88,29.91,10.0,WSW,2.3,-,N/A,,Overcast,250,2013-03-02 08:58:00
4:58 AM,33.6,29.7,85,29.91,10.0,North,1.2,-,N/A,,Overcast,360,2013-03-02 09:58:00
5:58 AM,33.1,30.2,89,29.90,10.0,Calm,Calm,-,N/A,,Overcast,0,2013-03-02 10:58:00
6:58 AM,35.1,30.6,84,29.90,10.0,WNW,1.2,-,N/A,,Overcast,290,2013-03-02 11:58:00
7:58 AM,35.6,28.9,77,29.93,10.0,Calm,Calm,-,N/A,,Overcast,0,2013-03-02 12:58:00
8:58 AM,37.9,29.1,71,29.92,10.0,Calm,Calm,-,N/A,,Partly Cloudy,0,2013-03-02 13:58:00
9:58 AM,39.9,28.8,64,29.91,10.0,Calm,Calm,-,N/A,,Mostly Cloudy,20,2013-03-02 14:58:00
10:58 AM,41.9,25.2,52,29.90,10.0,Calm,Calm,-,N/A,,Scattered Clouds,0,2013-03-02 15:58:00
11:58 AM,43.9,24.8,47,29.88,10.0,East,2.3,-,N/A,,Scattered Clouds,100,2013-03-02 16:58:00
12:58 PM,46.4,24.8,43,29.86,10.0,WNW,3.5,-,N/A,,Mostly Cloudy,300,2013-03-02 17:58:00
1:58 PM,46.2,25.7,45,29.85,10.0,NE,4.6,-,N/A,,Mostly Cloudy,50,2013-03-02 18:58:00
2:55 PM,48.2,24.8,40,29.82,10.0,Variable,1.2,-,N/A,,Overcast,0,2013-03-02 19:55:00
3:55 PM,48.2,26.6,43,29.82,10.0,NNW,6.9,-,N/A,,Scattered Clouds,330,2013-03-02 20:55:00
4:58 PM,47.7,26.2,43,29.83,10.0,NW,5.8,-,N/A,,Overcast,310,2013-03-02 21:58:00
5:58 PM,46.9,27.5,47,29.82,10.0,SW,5.8,-,N/A,,Mostly Cloudy,220,2013-03-02 22:58:00
6:55 PM,44.6,28.4,53,29.85,10.0,WNW,4.6,-,N/A,,Overcast,290,2013-03-02 23:55:00
7:55 PM,42.8,32.0,66,29.87,10.0,West,8.1,-,N/A,,Overcast,280,2013-03-03 00:55:00
8:58 PM,40.8,33.4,75,29.90,10.0,West,5.8,-,N/A,,Mostly Cloudy,280,2013-03-03 01:58:00
9:58 PM,40.5,28.9,64,29.91,10.0,North,6.9,-,N/A,,Mostly Cloudy,360,2013-03-03 02:58:00
10:58 PM,38.5,20.8,49,29.94,10.0,North,8.1,-,N/A,,Overcast,350,2013-03-03 03:58:00
11:58 PM,36.5,19.9,51,29.94,10.0,North,5.8,-,N/A,,Overcast,360,2013-03-03 04:58:00